Regional Weather Roundup
Issued by NWS Sterling, VA

Home | Current Version | Previous Version | Graphics & Text | Print | Product List | Glossary On
Versions: 1 2 3 4 5 6 7 8 9 10 11 12 13 14 15 16 17 18 19 20 21 22 23 24 25 26 27 28 29 30 31 32 33 34 35 36 37 38 39 40 41 42 43 44 45 46 47 48 49 50
742
ASUS41 KLWX 261411
RWRLWX

REGIONAL WEATHER ROUNDUP
NATIONAL WEATHER SERVICE BALTIMORE MD/WASHINGTON DC
1000 AM EDT WED APR 26 2017

Note: "FAIR" indicates few or no clouds below 12,000 feet
with no significant weather and/or obstructions to visibility.
 TC=TEMPERATURE CELSIUS

 * =Non NWS site. Station does not report precipitation (e.g. rain,
    snow, etc.), thunder, or fog.

DCZ001-MDZ009-015-VAZ040>042-051-053>054-261500-
WASHINGTON METRO

CITY           SKY/WX    TMP DP  RH WIND       PRES   REMARKS
WASHINGTON NAT CLOUDY    60  57  89 NW9       29.79R
DULLES         CLOUDY    60  56  86 NW9       29.79R
ANDREWS AFB    CLOUDY    59  56  89 NW8       29.77R
FT BELVOIR     CLOUDY    63  55  77 NW8       29.79R
QUANTICO       CLOUDY    63  58  83 N8        29.79R
COLLEGE PARK*  CLOUDY    59  55  87 NW5       29.78R
LEESBURG*      CLOUDY    61  59  94 N7        29.80R
MANASSAS*        N/A     62  57  83 N9        29.80R

$$

MDZ006>007-011-014-261500-
BALTIMORE METRO

CITY           SKY/WX    TMP DP  RH WIND       PRES   REMARKS
BWI AIRPORT    DRIZZLE   58  58 100 VRB3      29.76S FOG
MD SCIENCE CTR   N/A     59  54  83 MISG      29.77R
MARTIN STATE   DRIZZLE   57  57 100 NW8       29.78R
ANNAPOLIS      CLOUDY    60  57  89 NW6       29.77R FOG
FORT MEADE*    CLOUDY    59  55  88 W5        29.80R

$$

MDZ012-015-019>023-261500-
MARYLAND EASTERN SHORE

CITY           SKY/WX    TMP DP  RH WIND       PRES   REMARKS
OCEAN CITY     CLOUDY    58  56  93 NW9       29.73R
SALISBURY      LGT RAIN  59  59 100 W7        29.73R FOG
BAY BRIDGE AP* DRIZZLE   57  57 100 NW8       29.77R FOG
CAMBRIDGE*     CLOUDY    59  57  94 NW9       29.76R FOG
EASTON*        FOG       59  57  94 N5        29.79R VSB 1

$$

MDZ017>025-261500-
SOUTHERN MARYLAND

CITY           SKY/WX    TMP DP  RH WIND       PRES   REMARKS
PATUXENT RIVER CLOUDY    59  59 100 NW10      29.76R
ST INIGOES     CLOUDY    61  58  90 NW9       29.76R
LEONARDTOWN*   CLOUDY    59  55  88 W5        29.78R

$$

MDZ003>005-261500-
NORTH CENTRAL MARYLAND

CITY           SKY/WX    TMP DP  RH WIND       PRES   REMARKS
FREDERICK*     CLOUDY   N/A N/A N/A CALM      29.82R
HAGERSTOWN APT CLOUDY    60  56  86 NW6       29.79R
WESTMINSTER*   CLOUDY    57  57 100 N3        29.78S FOG

$$

MDZ501>502-261500-
WESTERN MARYLAND

CITY           SKY/WX    TMP DP  RH WIND       PRES   REMARKS
OAKLAND*       SUNNY     54  52  94 NW3       29.84S
CUMBERLAND*    CLOUDY    61  55  82 SW6       29.86R

$$

VAZ025>031-261500-
SHENANDOAH VALLEY

CITY           SKY/WX    TMP DP  RH WIND       PRES   REMARKS
WINCHESTER*    CLOUDY    59  55  88 NW9       29.80S
FRONT ROYAL*   CLOUDY    59  55  88 CALM      29.80S
LURAY*         MOSUNNY   59  55  88 CALM      29.81S
NEW MARKET*    SUNNY     59  52  79 CALM      29.81S
STAUNTON*      PTSUNNY   57  53  85 E3        29.84R
WAYNESBORO*    SUNNY     59  56  89 CALM      29.82S

$$

WVZ021-048>050-054>055-261500-
EASTERN WEST VIRGINIA PANHANDLE

CITY           SKY/WX    TMP DP  RH WIND       PRES   REMARKS
MARTINSBURG    CLOUDY    60  55  83 N8        29.79R
PETERSBURG*    CLOUDY    59  55  87 E3        29.83S

$$

VAZ036>039-050-261500-
CENTRAL FOOTHILLS

CITY           SKY/WX    TMP DP  RH WIND       PRES   REMARKS
CHARLOTTESVILL SUNNY     65  55  70 CALM      29.79R
CULPEPER*      CLOUDY    64  58  79 NE6       29.80R
ORANGE*        SUNNY     63  55  77 CALM      29.80R
GORDONSVILLE*  SUNNY     64  57  80 S3        29.79S
WARRENTON*     CLOUDY    64  55  70 NW5       29.79R

$$

VAZ055>057-261500-
NORTH AND CENTRAL PIEDMONT

CITY           SKY/WX    TMP DP  RH WIND       PRES   REMARKS
FREDERICKSBRG* CLOUDY    64  59  86 NW6       29.78S
STAFFORD*      CLOUDY    62  58  88 NW12      29.83R

$$

NCZ024-NYZ072-PAZ021-071-VAZ022-071-261500-
OTHER REGIONAL OBSERVATIONS

CITY           SKY/WX    TMP DP  RH WIND       PRES   REMARKS
NEW YORK CITY  CLOUDY    56  55  97 NE8G17    29.78S
PHILADELPHIA   CLOUDY    58  56  93 NE10      29.75S
PITTSBURGH     MOSUNNY   60  54  80 S6        29.81R
ROANOKE        MOSUNNY   65  58  78 SW9       29.85R
RICHMOND       CLOUDY    61  58  90 N8        29.80R
RALEIGH        PTSUNNY   67  58  72 W9        29.84R

$$

ANZ530>537-261500-
MARINE OBSERVATIONS

STATION/POSITION TIME  TEMP    WIND        PRES
                       AIR SEA DIR/SP/G
                 (UTC) (F)     (DEG/KT/KT) (MB)
THOMAS PT LIGHT  1400   57 56  340/  8/  9   N/A
BALT KEY BRIDGE  1342   57     330/  7/  8 1008.0R
COVE POINT       1342   57     340/ 11/ 13 1008.2R
LEWISETTA        1342   59 61  320/ 10/ 13 1007.7R
SOLOMONS ISLAND  1342   59 60  320/  5/ 11   N/A
PINEY POINT      1348          320/ 13/ 14   N/A

$$





USA.gov is the U.S. government's official web portal to all federal, state and local government web resources and services.